Regional Weather Roundup
Issued by NWS Newport/Morehead, NC

Current Version | Previous Version | Text Only | Print | Product List | Glossary Off
Versions: 1 2 3 4 5 6 7 8 9 10 11 12 13 14 15 16 17 18 19 20 21 22 23 24 25 26 27 28 29 30 31 32 33 34 35 36 37 38 39 40 41 42 43 44 45 46 47 48 49 50
000 ASUS42 KMHX 200325 RWRMHX WEATHER ROUNDUP FOR EASTERN NORTH CAROLINA NATIONAL WEATHER SERVICE NEWPORT/MOREHEAD CITY NC 1100 PM EDT THU APR 19 2018 NOTE: "FAIR" INDICATES FEW OR NO CLOUDS BELOW 12,000 FEET WITH NO SIGNIFICANT WEATHER AND/OR OBSTRUCTIONS TO VISIBILITY NCZ015>017-031-032-045>047-102-103-200400- NORTH COAST CITY SKY/WX TMP DP RH WIND PRES REMARKS EDENTON FAIR 55 33 44 N10 30.12R ELIZABETH CITY FAIR 54 33 45 N17 30.11R KITTY HAWK FAIR 50 37 62 N8G20 30.10R MANTEO FAIR 50 37 61 NE23G37 30.12R $$ NCZ045>047-081-094-103-104-200400- CENTRAL COAST CITY SKY/WX TMP DP RH WIND PRES REMARKS FRISCO FAIR 55 43 63 NE10G22 30.09R $$ NCZ095-097-098-100-101-200400- SOUTHERN COAST CITY SKY/WX TMP DP RH WIND PRES REMARKS BEAUFORT MOCLDY 59 37 44 N14G24 30.09R CEDAR ISLAND NOT AVBL JACKSONVILLE FAIR 55 32 41 N13G24 30.12R PINEY ISLAND NOT AVBL WILMINGTON FAIR 57 33 40 N15G22 30.12R $$ NCZ011>013-027>030-043-044-078>080-089-090>093-098-200400- COASTAL PLAIN CITY SKY/WX TMP DP RH WIND PRES REMARKS AHOSKIE FAIR 48 31 52 CALM 30.16R CLINTON FAIR 52 32 46 N8 30.17R ELIZABETHTOWN FAIR 54 31 41 MISG 30.16R GOLDSBORO FAIR 51 29 43 NW10 30.15R GREENVILLE FAIR 50 32 50 NW8 30.17R HAVELOCK NOT AVBL KENANSVILLE FAIR 52 30 43 N15G21 30.16R KINSTON FAIR 51 31 46 NW8 30.16R NEW BERN FAIR 53 35 50 N12G18 30.13R RICHLANDS FAIR 53 31 42 N10G17 30.14R ROCKY MOUNT FAIR 48 30 49 NW10 30.17R WASHINGTON FAIR 51 31 46 CALM 30.15R WHITEVILLE FAIR 56 31 39 N8 30.13R $$ AMZ130-135-150-152-154-156-158-170-250-252-270-ANZ085-086-088-633-658-670-200400- MARINE OBSERVATIONS STATION/POSITION TIME TEMP WIND PRES WAVE SWELL AIR SEA DIR/SP/G HT/PER HT/PER (UTC) (F) (DEG/KT/KT) (MB) (FT/S) (FT/S) CHESAPEAKE LIGHT NOT AVBL 64 E VA BEACH 0250 49 50 350/ 25/ 31 1018.7 5/ 5 2/ 8 DUCK 0300 50 50 10/ 29/ 36 1018.3 2 E DUCK 0300 49 N/A 6/ 5 2/14 OREGON INLET 0254 51 63 360/ 16/ 24 1019.2 13E OREGON INLT 0248 52 N/A 5/ 5 3/ 9 HATTERAS CG 0300 56 64 30/ 17/ 27 1018.8 DIAMOND BUOY 0310 58 67 20/ 25/ 33 1018.6 CAPE LOOKOUT 0300 350/ 19/ 21 1019.0 BEAUFORT LAB 0300 59 63 350/ 11/ 17 1019.3 30 SE NEW RVR IN 0308 61 65 20/ 19/ 25 1018.9 30 SE NEW RVR IN 0300 66 N/A 6/ 5 27 SE WRIGHTSVLE 0308 61 66 360/ 25/ 35 1018.4 5 SE WRIGHTSVLE 0308 60 60 10/ 17/ 25 1018.7 225 S CAPE HAT 0310 72 71 240/ 16/ 19 1016.1 41 SE CHARLESTON 0310 69 68 20/ 16/ 21 1017.1 $$

USA.gov is the U.S. government's official web portal to all federal, state and local government web resources and services.